Skip Page Navigation
NASA JPL Caltech
NASA Logo - Jet Propulsion Laboratory + View the NASA Portal
+ Center for Near-Earth Object Studies
JPL Home Earth Solar System Stars & Galaxies Technology
JPL Solar System Dynamics
BODIES ORBITS EPHEMERIDES TOOLS PHYSICAL DATA DISCOVERY FAQ SITE MAP
IMPORTANT: The SSD Announcement email list is now available. Major changes are coming in the near future, including possible hostname and/or URL changes. To be notified of such changes, subscribe to this email list.

Please visit this page for more details.


JPL Small-Body Database Browser
Search: [ help ]  
376785 (2000 QV147)
Classification: Main-belt Asteroid          SPK-ID: 2376785
Ephemeris | Orbit Diagram | Orbital Elements | Mission Design | Physical Parameters | Discovery Circumstances ]

[ show orbit diagram ]
Orbital Elements at Epoch 2459000.5 (2020-May-31.0) TDB
Reference: JPL 13 (heliocentric ecliptic J2000)
 Element Value Uncertainty (1-sigma)   Units 
e .2566690976884982 5.2928e-08  
a 2.598878985256315 2.2646e-08 au
q 1.931827061108977 1.3394e-07 au
i 19.71305958794096 7.7427e-06 deg
node 332.8605398427406 2.1478e-05 deg
peri 324.6594287412362 3.0934e-05 deg
M 283.3778766593159 2.6796e-05 deg
tp 2459326.208576971456
(2021-Apr-21.70857697)
0.00011633 TDB
period 1530.303293584989
4.19
2.0002e-05
5.476e-08
d
yr
n .2352474842791721 3.0748e-09 deg/d
Q 3.265930909403653 2.8459e-08 au
  Orbit Determination Parameters
   # obs. used (total)      206  
   data-arc span      6752 days (18.49 yr)  
   first obs. used      2000-08-03  
   last obs. used      2019-01-28  
   planetary ephem.      DE431  
   SB-pert. ephem.      SB431-N16  
   condition code      0  
   norm. resid. RMS      .54975  
   source      ORB  
   producer      Otto Matic  
   solution date      2019-Jul-13 08:05:34  

Additional Information
 Earth MOID = .945075 au 
 Jupiter MOID = 2.1315 au 
 T_jup = 3.288 
[ show covariance matrix ]

Ephemeris | Orbit Diagram | Orbital Elements | Mission Design | Physical Parameters | Discovery Circumstances ]

Physical Parameter Table
Parameter Symbol Value Units Sigma Reference Notes
absolute magnitude H 16.1   n/a MPO368573  
diameter diameter 3.322 km 1.164 urn:nasa:pds:neowise_diameters_albedos::2.0[mainbelt] (http://adsabs.harvard.edu/abs/2011ApJ...741...68M)  
geometric albedo albedo 0.070   0.025 urn:nasa:pds:neowise_diameters_albedos::2.0[mainbelt] (http://adsabs.harvard.edu/abs/2011ApJ...741...68M)  

376785 (2000 QV147)          Discovered 2000-Aug-31 by LINEAR at Socorro
Reference: Last Updated: 2013-11-20
Ephemeris | Orbit Diagram | Orbital Elements | Mission Design | Physical Parameters | Discovery Circumstances ]
ABOUT SSD CREDITS/AWARDS PRIVACY/COPYRIGHT GLOSSARY LINKS
FirstGov 2020-Feb-23 09:23 UT
(server date/time)  
NASA Home Page
Site Manager:   Ryan S. Park
Webmaster  Alan B. Chamberlin